Location: Hains Lake
(37.8540°N, 99.8578°W)
Time: 16:32:30
(UTC+00:00)

Vanguard 1 - Pass Details

Date: 06 December 2021
Orbit: 652 x 3830 km, 34.2° (Epoch: 22 January)

Event Time Altitude Azimuth Distance (km) Brightness Sun altitude
Exits shadow 10:33:40 53° 257° (WSW) 3,982 12.6 -36.2°
Maximum altitude 10:39:47 69° 201° (SSW) 3,341 12.4 -35.0°
Drops below altitude 10° 10:54:30 10° 122° (ESE) 4,738 14.2 -32.1°
Sets 10:57:26 0° 119° (ESE) 5,404 14.8 -31.6°
